Regional Weather Roundup
Issued by NWS

Home | Current Version | Previous Version | Graphics & Text | Print | Product List | Glossary Off
Versions: 1 2 3 4 5 6 7 8 9 10 11 12 13 14 15 16 17 18 19 20 21 22 23 24 25 26 27 28 29 30 31 32 33 34 35 36 37 38 39 40 41 42 43 44 45 46 47 48 49 50

000
ASUS43 KFSD 300610
RWRSD

WEATHER ROUNDUP FOR SOUTH DAKOTA
NATIONAL WEATHER SERVICE SIOUX FALLS SD
100 AM CDT TUE AUG 30 2016

NOTE: "FAIR" INDICATES FEW OR NO CLOUDS BELOW 12,000 FEET WITH NO
SIGNIFICANT WEATHER AND/OR OBSTRUCTIONS TO VISIBILITY.


SDZ001>005-009-010-012>017-300700-
NORTHWEST AND NORTH CENTRAL SOUTH DAKOTA

CITY           SKY/WX    TMP DP  RH WIND       PRES   REMARKS
BUFFALO          N/A     63  51  65 E12       30.19F
FAITH            N/A     61  52  72 E8        30.24S
MOBRIDGE       PTCLDY    64  55  72 NE12      30.21R
$$

SDZ012>016-024>037-041>051-057-063-072>074-300700-
SOUTHWEST AND SOUTH CENTRAL SOUTH DAKOTA

CITY           SKY/WX    TMP DP  RH WIND       PRES   REMARKS
RAPID CTY ARPT CLEAR     63  60  90 CALM      30.26S
PIERRE         PTCLDY    70  60  70 NE13      30.17S
CUSTER         CLEAR     60  55  83 NE7       30.39S
ELLSWORTH AFB  CLEAR     68  61  78 CALM      30.26R
PHILIP         MOCLDY    70  65  84 E10       30.20R
PINE RIDGE     CLEAR     62  60  93 CALM      30.25S
WINNER         FAIR      73  63  70 SW6       30.18S
$$

SDZ004>011-016>023-039-040-300700-
NORTHEAST SOUTH DAKOTA

CITY           SKY/WX    TMP DP  RH WIND       PRES   REMARKS
ABERDEEN       PTCLDY    63  58  83 NE6       30.21R
WATERTOWN      MOCLDY    70  67  90 NE6       30.20F
BROOKINGS      MOCLDY    70  67  90 N5        30.19R
SISSETON         N/A     63  60  90 NW7       30.20R
$$

SDZ017-020-022-023-036>040-048>070-300700-
SOUTHEAST SOUTH DAKOTA

CITY           SKY/WX    TMP DP  RH WIND       PRES   REMARKS
SIOUX FALLS    FAIR      73  66  78 VRB5      30.17F
HURON          MOCLDY    71  67  87 NE3       30.16R
CHAMBERLAIN    MOCLDY    72  68  88 E5        30.17F
MITCHELL       MOCLDY    73  69  87 S10       30.16F
YANKTON        FAIR      72  63  73 S5        30.17S
$$

ABBREVIATIONS USED IN REMARKS
   TC - TEMPERATURE IN CELSIUS
  WCI - WIND CHILL INDEX
   HX - HEAT INDEX
  VSB - VISIBILITY





USA.gov is the U.S. government's official web portal to all federal, state and local government web resources and services.